Location: Great Tey
(51.9000°N, 0.7500°E)
Time: 05:15:55
(UTC+00:00)

Daily predictions for brighter satellites

Satellite Brightness Start Highest point End
(mag) Time Altitude Azimuth Time Altitude Azimuth Time Altitude Azimuth
ACS3 Solar Sail 3.8 02:21:34 10° NNE 02:24:02 21° NE 02:24:02 21° NE
COSMOS 2428 4.1 03:21:07 34° NE 03:21:07 34° NE 03:24:16 10° NE
CZ-2C R/B 4.2 03:17:08 10° NNE 03:21:32 29° E 03:21:32 29° E
USA 267 4.5 03:24:09 10° ENE 03:29:56 32° SE 03:31:27 29° SSE
NOSS 3-1 (A) 4.1 03:37:27 42° E 03:37:27 42° E 03:41:48 10° NE
Cosmos 2237 Rocket 3.1 03:37:34 44° ESE 03:37:34 44° ESE 03:42:53 10° NE
ARGOS 3.9 03:35:09 10° NNE 03:40:21 49° E 03:40:21 49° E
CENTAUR R/B 3.7 03:39:59 40° NNW 03:42:35 53° NNE 03:51:26 10° ESE
Cosmos 2369 Rocket 3.8 03:41:31 25° N 03:43:23 30° NE 03:48:23 10° ESE
ADEOS II 4.3 03:39:44 10° N 03:40:38 15° N 03:40:38 15° N
Cosmos 2360 Rocket 4.1 03:52:38 19° N 03:52:38 19° N 03:54:49 10° NNE
SJ 16-02 3.2 03:51:38 28° ESE 03:51:38 28° ESE 03:54:06 10° SE
Cosmos 2322 Rocket 4.1 03:57:46 19° N 03:57:46 19° N 04:00:02 10° NNE
ADEOS Rocket 3.3 03:49:27 10° NNE 03:55:46 71° NW 03:55:46 71° NW
Cosmos 2333 Rocket 4.1 03:59:30 18° N 03:59:30 18° N 04:01:52 10° NNE
CZ-2D R/B 4.4 03:58:48 10° N 03:59:17 12° N 03:59:17 12° N
SL-16 R/B 4.2 04:08:31 15° N 04:08:31 15° N 04:10:37 10° NNE
USA 234 3.1 04:02:17 10° ESE 04:08:52 87° SSW 04:09:48 69° WNW
ACS3 Solar Sail 2.4 04:04:13 10° N 04:08:08 40° NNW 04:08:08 40° NNW
COSMOS 2455 4.2 04:12:21 25° NNW 04:12:21 25° NNW 04:16:35 10° NNE
Cosmos 371 Rocket 3.8 04:11:29 55° NE 04:11:49 57° ENE 04:16:34 10° SE
Resurs 1-4 Rocket 4.4 04:10:55 10° N 04:11:20 12° N 04:11:20 12° N
Cosmos 1864 Rocket 4.3 04:08:58 10° NNW 04:15:24 73° WSW 04:21:34 10° S
Cosmos 2292 Rocket 4.4 04:16:36 25° S 04:19:45 74° E 04:26:17 10° NNE
Cosmos 304 Rocket 4.0 04:20:02 66° NE 04:20:16 67° ENE 04:25:00 10° SE
Cosmos 2061 Rocket 4.1 04:14:54 10° N 04:21:08 76° ENE 04:27:20 10° SSE
Cosmos 1656 Rocket 3.8 04:20:09 49° NNW 04:21:42 76° ENE 04:27:22 10° SE
Gbstr 26 Del rocket 3.3 04:22:01 86° ESE 04:22:01 86° ESE 04:27:46 10° E
Lacrosse 5 rocket 3.0 04:23:30 25° ENE 04:23:30 25° ENE 04:25:14 10° E
Lacrosse 4 Rocket 3.7 04:22:06 14° NNE 04:22:57 15° NNE 04:25:19 10° ENE
Meteor 1-24 Rocket 3.5 04:23:19 73° NW 04:23:19 73° NW 04:28:29 10° N
Cosmos 2219 Rocket 3.7 04:26:24 23° NNW 04:26:24 23° NNW 04:29:37 10° NNE
Cosmos 1725 Rocket 3.9 04:23:12 10° NNW 04:29:28 65° W 04:35:41 10° S
Cosmos 2233 Rocket 3.9 04:25:25 10° N 04:31:45 86° W 04:38:01 10° S
Cosmos 2251 Rocket 3.8 04:36:55 52° SSW 04:36:55 52° SSW 04:41:19 10° S
IRS P6 4.4 04:30:54 10° NNE 04:36:12 72° WNW 04:36:55 62° WSW
NOSS 3-1 (C) 3.6 04:37:44 44° NNW 04:37:54 44° NNW 04:43:55 10° NE
Helios 1A Rocket 3.6 04:35:21 10° SE 04:38:31 40° ENE 04:38:59 38° NE
Meteor 2-21 Rocket 4.3 04:36:39 42° SW 04:38:37 65° WNW 04:44:40 10° N
NOSS 2-2 (C) 4.3 04:39:27 37° NNE 04:39:56 39° NE 04:44:14 10° ESE
Cosmos 1420 Rocket 4.0 04:37:58 33° SSW 04:40:24 85° ESE 04:45:45 10° NNE
H-2A R/B 3.8 04:36:21 10° N 04:37:38 17° NNW 04:37:38 17° NNW
SL-16 R/B 3.4 04:35:38 10° S 04:40:55 41° ESE 04:46:13 10° NE
PAYLOAD A 3.9 04:37:14 10° NNE 04:42:39 79° WNW 04:45:44 26° SSW
SL-08 RB Rocket 3.5 04:39:32 10° N 04:44:01 73° WNW 04:44:01 73° WNW
Cosmos 1812 3.9 04:46:27 28° SE 04:46:27 28° SE 04:48:07 10° SSE
NOSS 0 Rocket 4.0 04:48:18 47° W 04:49:26 53° NW 04:55:29 10° NNE
SL-08 R/B 4.4 04:44:22 10° NNW 04:50:21 56° W 04:56:23 10° S
Cosmos 1802 Rocket 4.3 04:44:58 10° NNW 04:51:41 41° WSW 04:56:43 10° SSW
CZ-2C R/B 2.6 04:54:56 10° N 04:59:48 49° WNW 05:00:45 43° W
Cosmos 1939 Rocket 2.6 04:57:09 10° N 05:00:59 69° WNW 05:01:05 69° W
NOSS 2-2 (D) 4.5 05:00:57 27° N 05:02:12 35° NE 05:06:19 10° ESE
COSMOS 2428 3.5 05:03:07 31° NW 05:03:18 31° NW 05:08:20 10° NNE
Meteor 2-5 Rocket 4.0 05:02:08 36° WSW 05:03:44 44° WNW 05:09:16 10° N
Cosmos 2084 4.3 05:03:54 29° NNW 05:05:26 41° NNE 05:09:16 10° ESE
Cosmos 1980 3.9 05:04:29 38° W 05:06:05 49° NW 05:11:37 10° NNE
SJ-11-01 4.2 05:01:25 10° NNE 05:06:08 90° NE 05:10:51 10° SSW
Cosmos 2263 4.4 05:06:19 15° NNW 05:11:13 76° ENE 05:16:59 10° SE
NOSS 3-2 (A) 4.2 05:06:32 20° NW 05:11:37 66° NE 05:20:02 10° ESE
Cosmos 2123 Rocket 4.3 05:09:25 28° WSW 05:11:58 39° WNW 05:17:45 10° N
USA 229 DEB 4.4 05:06:23 10° SSW 05:12:04 48° ESE 05:18:25 10° NE
USA 229 4.4 05:06:37 10° SSW 05:12:16 48° ESE 05:18:38 10° NE
USA 267 3.3 05:06:58 10° ENE 05:13:34 82° SSE 05:18:49 17° WSW
Cosmos 676 Rocket 4.1 05:14:56 28° NW 05:17:26 50° WSW 05:22:25 10° S
ARGOS 3.8 05:15:41 10° N 05:20:29 33° WNW 05:21:49 29° W
Cosmos 2237 Rocket 2.6 05:19:25 29° W 05:21:40 42° NW 05:27:02 10° NNE
Cosmos 2297 3.6 05:17:57 17° NNW 05:22:27 77° WSW 05:28:04 10° SSE
Okean 2 Rocket 3.5 05:18:21 10° N 05:22:42 62° ENE 05:27:01 10° SSE
ADEOS II 4.2 05:21:26 10° NNW 05:21:27 10° NNW 05:21:27 10° NNW
Aureole 3 3.9 05:20:34 10° SSW 05:26:17 65° WNW 05:31:03 10° N
NOSS 3-1 (A) 3.6 05:24:50 29° W 05:27:06 45° NNW 05:33:10 10° NE
Cosmos 2369 Rocket 2.1 05:23:19 16° NW 05:27:54 70° WSW 05:33:34 10° SSE
SJ 16-02 2.1 05:28:15 29° WSW 05:28:15 29° WSW 05:31:50 10° SSW
Cosmos 2056 Rocket 3.5 05:23:57 10° SW 05:29:20 67° WNW 05:34:43 10° NNE
Cosmos 1513 Rocket 4.5 05:23:39 10° NNW 05:30:04 75° W 05:36:21 10° S
SKYMED 2 3.7 05:26:53 10° S 05:31:05 49° W 05:35:20 10° NNW
ATLAS 3B R/B 3.3 05:25:50 10° SSW 05:33:21 70° SE 05:41:12 10° NE
CENTAUR R/B 3.3 05:27:06 17° NW 05:33:50 71° SW 05:43:09 10° SSE
Cosmos 2360 Rocket 4.2 05:34:23 11° NNW 05:36:07 12° NNW 05:38:18 10° N
COSMO-SKYMED 1 2.5 05:32:18 10° S 05:36:21 57° W 05:40:27 10° NNW
IRS-1D 3.4 05:32:27 10° N 05:37:22 64° WNW 05:42:14 10° SSW
FengYun 1-2 T 4.3 05:32:54 10° N 05:38:20 54° WNW 05:43:46 10° SW
Cosmos 292 Rocket 4.5 05:35:36 10° NNW 05:40:20 54° ENE 05:45:01 10° SE
ADEOS Rocket 4.5 05:36:02 10° N 05:40:48 21° NW 05:42:42 19° WNW
Cosmos 2322 Rocket 4.3 05:39:45 10° NNW 05:41:44 12° N 05:43:42 10° N
USA 306 2.3 05:41:00 28° WSW 05:42:40 88° NNW 05:46:35 10° ENE
BREEZE-M DEB (TANK) 4.4 05:41:44 10° SSW 05:43:51 19° SE 05:47:07 10° E
Cosmos 2333 Rocket 4.3 05:42:01 10° NNW 05:44:06 12° N 05:46:12 10° NNE
Cosmos 1025 Rocket 3.5 05:41:19 10° S 05:45:38 65° E 05:49:58 10° NNE
DMSP B5D1-3 4.5 05:40:36 10° SSE 05:45:42 90° WSW 05:50:53 10° NNW
Cosmos 1371 Rocket 4.2 05:43:42 10° SW 05:48:52 50° WNW 05:54:05 10° NNE
Cosmos 968 Rocket 3.7 05:45:02 10° NNW 05:50:07 52° WSW 05:55:11 10° S
Cosmos 1674 Rocket 3.5 05:46:15 10° SSW 05:50:41 84° WNW 05:55:07 10° N
Cosmos 371 Rocket 4.4 05:50:01 20° WNW 05:51:41 24° W 05:55:28 10° SSW
RUBIN 8/PSLV 4.5 05:47:25 10° NNE 05:51:50 78° WNW 05:56:12 10° SSW
ACS3 Solar Sail 3.3 05:48:50 10° NNW 05:51:54 15° NW 05:52:15 14° NW
USA 234 4.0 05:46:28 10° SSE 05:52:24 36° SW 05:57:09 16° WNW
Cosmos 1741 Rocket 4.0 05:47:55 10° NNW 05:53:12 65° WSW 05:58:26 10° S
SL-16 R/B 4.4 05:52:16 10° NNW 05:53:41 11° N 05:55:06 10° NNE
CZ-4 R/B 4.0 05:51:57 10° N 05:56:38 48° WNW 06:01:12 10° SW
Cosmos 1400 Rocket 3.0 05:53:46 10° NNW 05:57:15 39° W 06:00:41 10° SSW
Meteor 1-21 Rocket 4.2 05:51:57 10° SSW 05:57:36 60° WNW 06:03:11 10° N
Cosmos 1484 Rocket 2.4 05:54:53 10° NNE 05:58:27 87° WNW 06:01:59 10° SSW
NOSS 2-2 (E) 3.5 05:56:07 15° NW 05:59:06 73° NE 06:03:56 10° SE
Lacrosse 5 rocket 0.7 05:57:10 21° WNW 05:59:18 72° SSW 06:02:35 10° SE
USA 59 Rocket 1.4 05:59:50 11° NNW 06:00:37 11° N 06:01:41 10° NNE
Cosmos 2221 Rocket 3.7 05:56:21 10° S 06:00:53 83° E 06:05:26 10° NNE
Lacrosse 4 Rocket 1.7 05:57:40 10° NNW 06:01:38 59° NE 06:05:30 10° SE
NOAA 12 4.3 05:58:18 10° N 06:03:27 50° WNW 06:08:33 10° SW
Cosmos 2151 Rocket 3.9 06:00:46 10° NNW 06:05:02 43° W 06:09:15 10° SSW
Cosmos 1110 Rocket 4.0 05:59:48 10° SSW 06:05:06 81° WNW 06:10:27 10° NNE
Cosmos 1455 Rocket 3.4 06:01:07 10° N 06:05:27 68° ENE 06:09:48 10° SSE
Thor Agena Rocket 4.2 06:02:14 10° NNE 06:07:24 60° ESE 06:12:29 10° S
Gbstr 26 Del rocket 3.8 06:04:03 15° W 06:08:29 77° SSW 06:14:57 10° ESE
Cosmos 2219 Rocket 4.2 06:08:57 10° NNW 06:11:02 12° NNW 06:13:08 10° N
Helios 1A Rocket 4.0 06:09:07 10° SW 06:11:24 17° W 06:12:38 14° WNW
Meteor 2-17 Rocket 4.4 06:05:48 10° SSW 06:11:53 77° WNW 06:18:01 10° N
Sich 1 Rocket 3.7 06:07:54 10° NNW 06:12:21 55° W 06:16:44 10° S
Cosmos 1378 Rocket 4.1 06:14:36 10° SW 06:18:31 34° WNW 06:22:28 10° N
Cosmos 332 Rocket 4.3 06:16:13 10° NW 06:20:41 39° WSW 06:25:06 10° S
Okean 1 Rocket 3.4 06:18:37 10° NNW 06:22:43 43° W 06:26:46 10° SSW
SL-16 R/B 2.5 06:19:34 10° WSW 06:25:00 45° NW 06:30:29 10° NNE
Cosmos 1464 Rocket 4.4 06:23:09 10° NNW 06:28:51 41° W 06:34:29 10° SSW
NOSS 2-2 (C) 4.4 06:25:29 10° WNW 06:29:05 37° SW 06:33:53 10° SSE
Cosmos 1634 Rocket 4.1 06:24:02 10° N 06:30:16 87° ENE 06:36:27 10° S
Orbus 7S? 3.4 06:28:40 10° W 06:32:22 41° NNW 06:34:55 10° ENE
Cosmos 1656 4.2 06:29:57 10° NNW 06:35:37 61° NE 06:41:15 10° SE
CZ-2C R/B 4.3 06:35:30 10° NNW 06:36:46 11° NW 06:38:01 10° WNW
ARIANE 5 R/B 3.0 06:33:13 10° NNE 06:38:19 70° ESE 06:43:26 10° S
Cosmos 1452 Rocket 3.5 06:33:13 10° SW 06:38:24 61° WNW 06:43:36 10° NNE
IGS 5A 3.6 06:36:10 10° N 06:40:04 48° WNW 06:43:55 10° SW
Cosmos 2034 Rocket 4.3 06:34:21 10° NNW 06:40:26 50° W 06:46:31 10° SSW
SL-08 R/B 3.7 06:36:15 10° SSE 06:40:47 64° ENE 06:45:21 10° N
NOSS 3-2 (C) 4.1 06:34:56 10° NW 06:42:01 87° NE 06:50:41 10° SE
